EHI
3 3 2 1 0 0 0 0 0 0 0 0 0 0 0 0 0 0 0 0 0 0 0 0 0 0 0 0 0 0 0 0 0 0 0 0 0 0 0 0 0 0 0
2 2 1 0 0 0 0 0 0 0 0 0 0 0 0 0 0 0 0 0 0 0 0 0 0 0 0 0 0 0 0 0 0 0 0 0 0 0 0 0 0 0 0
1 1 0 0 0 0 0 0 0 0 0 0 0 0 0 0 0 0 0 0 0 0 0 0 0 0 0 0 0 0 0 0 0 0 0 0 0 0 0 0 0 0 0
0 0 0 0 0 0 0 0 0 0 0 0 0 0 0 0 0 0 0 0 0 0 0 0 0 0 0 0 0 0 0 0 0 0 0 0 0 0 0 0 0 0 0
0 0 0 0 0 0 0 0 0 0 0 0 0 0 0 0 0 0 0 0 0 0 0 0 0 0 0 0 0 0 0 0 0 0 0 0 0 0 0 0 0 0 0
0 0 0 0 0 0 0 0 0 0 0 0 0 0 0 0 0 0 0 0 0 0 0 0 0 0 0 0 0 0 0 0 0 0 0 0 0 0 0 0 0 0 0
0 0 0 0 0 0 0 0 0 0 0 0 0 0 0 0 0 0 0 0 0 0 0 0 0 0 0 0 0 0 0 0 0 0 0 0 0 0 0 0 0 0 0
0 0 0 0 0 0 0 0 0 0 0 0 0 0 0 0 0 0 0 0 0 0 0 0 0 0 0 0 0 0 0 0 0 0 0 0 0 0 0 0 0 0 0
0 0 0 0 0 0 0 0 0 0 0 0 0 0 0 0 0 0 0 0 0 0 0 0 0 0 0 0 0 0 0 0 0 0 0 0 0 0 0 0 0 0 0
0 0 0 0 0 0 0 0 0 0 0 0 0 0 0 0 0 0 0 0 0 0 0 0 0 0 0 0 0 0 0 0 0 0 0 0 0 0 0 0 0 0 0
0 0 0 0 0 0 0 0 0 0 0 0 0 0 0 0 0 0 0 0 0 0 0 0 0 0 0 0 0 0 0 0 0 0 0 0 0 0 0 0 0 0 0
0 0 0 0 0 0 0 0 0 0 0 0 0 0 0 0 0 0 0 0 0 0 0 0 0 0 0 0 0 0 0 0 0 0 0 0 0 0 0 0 0 0 0
0 0 0 0 0 0 0 0 0 0 0 0 0 0 0 0 0 0 0 0 0 0 0 0 0 0 0 0 0 0 0 0 0 0 0 0 0 0 0 0 0 0 0
0 0 0 0 0 0 0 0 0 0 0 0 0 0 0 0 0 0 0 0 0 0 0 0 0 0 0 0 0 0 0 0 0 0 0 0 0 0 0 0 0 0 0
0 0 0 0 0 0 0 0 0 0 0 0 0 0 0 0 0 0 0 0 0 0 0 0 0 0 0 0 0 0 0 0 0 0 0 0 0 0 0 0 0 0 0
0 0 0 0 0 0 0 0 0 0 0 0 0 0 0 0 0 0 0 0 0 0 0 0 0 0 0 0 0 0 0 0 0 0 0 0 0 0 0 0 0 0 0
0 0 0 0 0 0 0 0 0 0 0 0 0 0 0 0 0 0 0 0 0 0 0 0 0 0 0 0 0 0 0 0 0 0 0 0 0 0 0 0 0 0 0
0 0 0 0 0 0 0 0 0 0 0 0 0 0 0 0 0 0 0 0 0 0 0 0 0 0 0 0 0 0 0 0 0 0 0 0 0 0 0 0 0 0 0
0 0 0 0 0 0 0 0 0 0 0 0 0 0 0 0 0 0 0 0 0 0 0 0 0 0 0 0 0 0 0 0 0 0 0 0 0 0 0 0 0 0 0
0 0 0 0 0 0 0 0 0 0 0 0 0 0 0 0 0 0 0 0 0 0 0 0 0 0 0 0 0 0 0 0 0 0 0 0 0 0 0 0 0 0 0
0 0 0 0 0 0 0 0 0 0 0 0 0 0 0 0 0 0 0 0 0 0 0 0 0 0 0 0 0 0 0 0 0 0 0 0 0 0 0 0 0 0 0
0 0 0 0 0 0 0 0 0 0 0 0 0 0 0 0 0 0 0 0 0 0 0 0 0 0 0 0 0 0 0 0 0 0 0 0 0 0 0 0 0 0 0
0 0 0 0 0 0 0 0 0 0 0 0 0 0 0 0 0 0 0 0 0 0 0 0 0 0 0 0 0 0 0 0 0 0 0 0 0 0 0 0 0 0 0
0 0 0 0 0 0 0 0 0 0 0 0 0 0 0 0 0 0 0 0 0 0 0 0 0 0 0 0 0 0 0 0 0 0 0 0 0 0 0 0 0 0 0
0 0 0 0 0 0 0 0 0 0 0 0 0 0 0 0 0 0 0 0 0 0 0 0 0 0 0 0 0 0 0 0 0 0 0 0 0 0 0 0 0 0 0
0 0 0 0 0 0 0 0 0 0 0 0 0 0 0 0 0 0 0 0 0 0 0 0 0 0 0 0 0 0 0 0 0 0 0 0 0 0 0 0 0 0 0
Wind_Speed
2 2 1 2 2 2 2 2 2 2 2 1 1 2 2 2 2 2 3 6 5 5 5 4 4 4 4 4 4 4 4 4 4 5 5 5 5 5 6 7 7 7 7
2 2 2 1 2 2 1 1 2 1 1 1 2 2 2 2 2 2 2 4 6 5 4 4 3 3 3 3 3 3 4 4 4 5 5 6 6 6 7 7 7 8 8
3 3 2 1 1 2 2 2 2 1 1 1 2 1 1 2 1 2 1 1 3 5 5 4 4 3 3 3 4 4 4 5 5 6 6 6 6 7 7 7 8 8 9
4 3 2 2 1 2 2 2 2 2 2 2 1 1 1 1 1 1 1 1 1 1 3 5 5 5 4 3 3 4 4 4 5 5 6 6 7 7 7 8 8 8 9
4 3 2 2 2 2 2 2 2 2 2 2 2 1 1 1 1 1 1 1 1 1 1 3 3 5 5 4 4 4 4 5 5 6 6 7 7 8 8 8 9 9 10
3 3 2 3 2 2 2 2 3 2 2 2 2 1 1 1 1 1 1 1 1 1 0 0 0 2 3 4 4 4 5 5 5 6 6 7 7 8 9 9 9 9 10
3 3 2 3 2 2 3 3 3 3 2 2 2 1 1 1 1 1 1 0 1 0 0 1 1 1 0 2 3 4 5 6 6 6 7 7 8 8 9 9 10 10 10
3 2 3 2 2 2 3 4 3 2 2 1 1 2 2 3 2 1 1 1 1 1 1 1 1 1 2 1 2 3 5 7 7 8 8 8 9 9 9 10 10 10 11
3 2 3 3 3 3 3 3 4 4 3 2 2 2 2 2 1 2 3 2 2 2 2 2 2 2 2 2 2 2 5 7 8 9 9 9 10 10 10 10 11 11 11
2 2 2 3 3 3 3 3 4 3 4 3 2 1 2 2 2 2 3 3 3 3 3 3 3 3 3 3 2 4 5 7 8 9 10 10 10 11 11 11 11 11 11
2 2 2 3 3 2 3 3 3 4 3 3 3 2 2 2 3 3 3 3 3 3 3 3 3 3 3 3 3 4 5 7 8 10 10 10 11 11 12 12 12 12 12
2 3 2 2 3 3 3 3 3 4 3 4 3 3 3 3 3 3 4 4 4 3 3 3 4 4 4 4 4 5 6 8 9 10 11 11 11 11 12 12 13 13 13
2 3 3 2 2 3 3 3 3 3 3 4 3 3 3 3 3 3 4 4 4 3 3 4 4 3 4 4 3 5 6 8 9 10 11 11 11 11 12 12 13 13 13
2 2 2 2 2 3 3 3 2 3 3 3 3 3 3 3 3 3 4 4 4 4 4 4 3 3 4 4 4 6 6 7 9 10 11 11 10 10 11 12 12 12 12
2 3 3 3 3 3 3 3 3 3 3 3 3 4 3 3 3 3 3 4 4 5 5 3 3 3 4 4 5 6 7 7 9 10 10 10 10 10 11 11 11 11 12
2 3 3 3 3 2 3 3 3 3 4 4 3 4 4 3 3 3 3 4 4 5 5 4 4 4 5 4 5 7 7 8 9 9 10 9 10 10 11 11 12 12 12
3 3 3 3 3 3 3 3 3 4 4 4 4 5 5 5 4 3 3 4 4 4 6 5 4 5 6 6 6 6 6 6 5 8 10 10 10 11 11 11 12 12 13
3 3 3 3 3 3 3 4 4 5 5 5 5 5 5 4 5 4 4 5 5 5 6 7 6 5 6 6 6 6 6 5 6 8 10 10 11 11 11 11 11 12 12
3 3 4 4 4 4 4 4 5 5 5 6 6 6 6 6 6 5 5 5 4 5 5 6 6 5 5 4 6 6 6 6 6 6 9 10 10 10 11 11 11 12 12
3 4 4 4 4 4 5 5 5 5 5 5 6 6 6 6 7 6 5 6 5 6 5 5 6 5 5 5 5 5 5 5 5 5 6 7 8 10 11 11 11 11 11
3 3 3 4 4 4 4 5 5 5 5 6 6 6 6 7 7 7 6 6 6 5 5 5 6 5 5 4 4 4 6 6 5 4 5 5 5 6 6 8 9 10 11
3 3 4 4 4 4 5 6 6 5 6 6 6 6 6 7 8 9 10 10 9 8 7 6 6 6 7 6 5 4 5 6 5 3 5 6 5 6 5 5 8 10 10
3 4 4 4 5 5 6 7 8 6 6 6 6 6 5 5 7 7 8 10 10 11 11 9 8 8 7 6 5 6 6 7 7 5 5 7 5 6 5 6 9 10 11
3 3 4 4 5 5 6 7 7 7 6 6 6 6 6 6 6 6 6 7 8 8 9 8 8 8 7 6 6 6 7 7 7 5 5 6 5 6 6 6 7 9 10
3 4 4 4 5 5 6 6 6 5 5 6 6 6 6 6 7 8 7 7 7 6 6 8 9 8 8 8 7 4 4 5 6 5 3 4 5 6 6 5 5 8 10
3 3 4 5 5 6 6 6 6 4 5 5 5 5 7 8 8 8 7 7 7 6 5 5 6 8 7 7 8 7 5 5 5 5 3 3 4 4 5 4 4 5 6
Wind_Direction
183 158 158 164 163 160 165 163 162 147 145 125 107 100 99 98 108 113 93 63 46 52 54 61 71 69 64 56 45 35 24 16 6 1 357 351 344 337 333 331 332 332 332
176 167 149 166 163 167 160 167 149 152 150 139 128 120 114 109 115 120 116 96 69 54 50 50 55 58 52 41 35 27 17 9 2 356 351 347 342 336 329 326 327 326 325
169 165 159 164 169 169 169 157 139 149 138 136 132 114 106 105 118 121 120 110 102 75 55 43 40 43 47 41 37 34 24 18 10 5 359 352 345 338 329 324 323 322 322
160 164 161 163 176 181 171 161 157 153 146 143 127 113 122 119 103 96 118 119 99 97 80 49 42 38 32 26 16 13 9 3 357 353 348 347 345 341 338 336 333 328 323
163 166 162 159 171 185 172 166 167 167 152 138 125 124 134 140 113 99 92 102 91 70 88 84 57 38 22 12 1 357 352 347 342 339 336 337 337 334 332 331 329 329 327
166 159 161 159 168 179 176 174 160 155 147 142 134 126 134 155 175 146 123 110 118 97 68 84 127 64 28 4 360 351 342 337 333 327 326 325 325 325 325 326 324 323 322
153 164 164 164 175 186 182 171 155 150 147 148 161 158 170 182 190 201 210 181 133 194 237 270 293 302 303 350 355 344 333 330 326 322 319 317 316 316 318 320 319 317 318
154 170 175 172 179 186 182 177 170 168 155 201 219 199 205 199 188 206 222 228 230 252 270 268 271 284 293 294 353 335 326 320 319 317 315 314 311 311 313 314 314 314 314
157 167 183 182 185 196 190 190 186 189 186 194 231 250 242 231 198 199 220 230 235 244 260 283 280 273 281 287 294 316 322 317 311 309 309 309 310 308 308 309 309 310 311
155 169 183 189 188 195 193 195 202 200 194 197 192 236 289 314 253 228 209 222 244 256 259 259 265 271 267 271 287 315 312 306 304 303 304 305 307 307 307 309 308 308 309
166 171 181 189 190 193 195 193 199 206 206 205 204 204 209 232 255 253 253 246 243 245 253 258 262 268 269 265 270 305 302 297 298 299 300 301 303 305 306 307 306 306 306
169 174 180 189 194 191 194 196 199 207 212 208 208 214 215 223 229 241 253 256 262 258 255 252 251 258 266 268 270 296 290 289 293 296 296 298 302 303 303 303 302 303 303
186 177 177 188 197 192 191 191 196 207 209 209 215 218 224 234 243 249 258 264 270 272 254 244 243 251 262 266 270 285 275 283 289 293 293 296 302 302 301 299 298 300 301
193 175 181 193 199 195 191 188 197 204 205 208 218 223 229 233 234 237 245 256 267 263 252 250 242 245 261 270 288 284 273 278 285 289 291 294 298 301 300 299 298 300 302
182 178 184 195 200 202 200 195 206 210 208 212 218 223 230 235 238 241 241 246 257 267 266 259 259 255 274 275 284 278 279 283 284 284 287 292 294 296 296 296 296 298 299
186 182 191 201 204 209 210 210 215 215 214 218 221 222 227 233 234 235 235 238 245 259 270 273 269 280 280 279 285 283 281 285 276 278 283 288 291 293 293 293 295 296 296
199 201 203 208 212 219 223 222 223 220 220 224 225 226 229 232 231 232 233 235 241 246 258 269 270 276 276 280 280 281 285 280 277 275 279 283 287 288 289 291 293 294 294
209 210 213 216 223 229 232 232 232 227 224 227 230 230 231 233 233 235 234 235 240 245 255 268 270 273 275 279 283 282 284 279 278 276 275 279 282 284 287 288 289 291 292
212 215 220 222 226 233 237 239 240 237 233 234 237 236 235 233 235 236 240 244 245 247 249 261 271 276 279 282 287 283 282 279 280 278 276 275 275 281 285 285 286 289 291
218 222 228 233 235 237 238 239 242 244 242 242 243 242 242 238 241 241 243 245 248 251 251 258 268 274 279 284 281 284 289 284 282 281 279 277 274 276 278 280 282 286 290
228 229 232 237 239 241 239 240 242 245 247 248 248 245 244 245 250 250 249 247 247 251 254 257 264 270 272 276 277 288 292 294 287 282 285 277 277 275 275 272 273 279 285
231 232 237 240 244 248 244 249 253 248 248 247 250 251 249 245 245 248 251 253 252 253 253 255 260 262 269 275 281 282 290 291 287 285 290 284 279 276 276 274 281 284 284
234 241 246 249 252 249 246 250 253 255 253 252 252 252 252 250 248 248 250 251 251 254 255 260 259 261 269 270 273 276 277 281 279 293 294 283 278 275 276 275 280 280 282
238 246 251 253 256 252 251 258 258 254 253 253 253 254 255 255 251 253 257 256 255 252 252 253 261 269 273 273 267 273 280 285 286 276 274 278 282 284 286 277 270 277 282
247 253 255 255 258 258 253 259 262 259 255 258 258 256 254 257 253 254 257 258 260 259 256 256 265 270 271 268 265 264 266 274 279 273 260 270 285 294 286 273 269 274 278
253 260 260 259 259 262 255 256 258 255 257 262 262 259 254 254 259 256 256 256 260 266 267 266 260 259 258 253 248 248 251 259 274 274 243 257 279 298 291 273 279 279 276